Rome Ciampino, Italy

3:08 PM CET on November 21, 2017 (GMT +0100)
Ciampino

Weather History for LIRA - December, 2012

Change the Weather History Date:

Saturday, December 8, 2012

  Actual Average Record
Temperature  
Mean Temperature 42 °F -  
Max Temperature 50 °F 54 °F 68 °F (2010)
Min Temperature 35 °F 38 °F 30 °F (1998)
Degree Days  
Heating Degree Days 22    
Moisture  
Dew Point 33 °F    
Average Humidity 72    
Maximum Humidity 93    
Minimum Humidity 53    
Precipitation  
Precipitation 0.00 in 0.14 in - ()
Sea Level Pressure  
Sea Level Pressure 29.58 in    
Wind  
Wind Speed 9 mph ()    
Max Wind Speed 17 mph    
Max Gust Speed 29 mph    
Visibility 6.0 miles    
Events Rain , Thunderstorm    
Averages and records for this station are not official NWS values.
T = Trace of Precipitation, MM = Missing Value Source: Averaged Metar Reports

Daily Weather History Graph

Daily Weather History Graph

Search for Another Location

Airport or City:

Trip Planner

Search our weather history database for the weather conditions in past years. The results will help you decide how hot, cold, wet, or windy it might be!

Date:

Astronomy

Dec. 08, 2012 Rise Set
Actual Time 7:24 AM CET 4:38 PM CET
Civil Twilight 6:53 AM CET 5:10 PM CET
Nautical Twilight 6:18 AM CET 5:45 PM CET
Astronomical Twilight 5:44 AM CET 6:18 PM CET
Moon 1:26 AM CET (12/8) 1:02 PM CET (12/8)
Length of Visible Light 10h 16m
Length of Day
9h 14m
Waning Crescent, 31% of the Moon is Illuminated
Dec 8
Waning Crescent
Dec 13
New
Dec 20
First Quarter
Dec 28
Full
Jan 5
Last Quarter

Hourly Weather History & Observations

Time (CET) Temp. Windchill Dew Point Humidity Pressure Visibility Wind Dir Wind Speed Gust Speed Precip Events Conditions
12:15 AM 50.0 °F - 46.4 °F 87% 29.59 in 3.1 mi SSW 11.5 mph - N/A Rain , Thunderstorm Light Thunderstorms and Rain
12:45 AM 48.2 °F - 46.4 °F 93% 29.59 in 3.1 mi SW 11.5 mph 28.8 mph N/A Rain , Thunderstorm Light Thunderstorms and Rain
1:15 AM 48.2 °F - 46.4 °F 93% 29.53 in 5.0 mi SSW 13.8 mph - N/A Rain , Thunderstorm Light Thunderstorms and Rain
1:45 AM 50.0 °F - 46.4 °F 87% 29.53 in 6.2 mi SSW 11.5 mph - N/A   Scattered Clouds
2:15 AM 50.0 °F - 46.4 °F 87% 29.53 in 6.2 mi WSW 8.1 mph - N/A   Scattered Clouds
2:45 AM 48.2 °F - 46.4 °F 93% 29.53 in 6.2 mi NW 17.3 mph 28.8 mph N/A Rain , Thunderstorm Light Thunderstorms and Rain
3:15 AM 46.4 °F 45.2 °F 41.0 °F 81% 29.53 in 6.2 mi North 3.5 mph - N/A   Scattered Clouds
3:45 AM 46.4 °F - 41.0 °F 81% 29.56 in 6.2 mi NE 2.3 mph - N/A   Scattered Clouds
4:15 AM 46.4 °F 45.2 °F 41.0 °F 81% 29.53 in 6.2 mi North 3.5 mph - N/A   Scattered Clouds
4:45 AM 44.6 °F 41.4 °F 39.2 °F 81% 29.53 in 6.2 mi NNE 5.8 mph - N/A   Scattered Clouds
5:15 AM 44.6 °F 40.2 °F 37.4 °F 76% 29.53 in 6.2 mi NNW 8.1 mph - N/A   Scattered Clouds
5:45 AM 42.8 °F 41.1 °F 35.6 °F 76% 29.53 in 6.2 mi NNE 3.5 mph - N/A   Scattered Clouds
6:15 AM 41.0 °F - 35.6 °F 81% 29.53 in 6.2 mi North 2.3 mph - N/A   Scattered Clouds
6:45 AM 41.0 °F - 35.6 °F 81% 29.53 in 6.2 mi Calm Calm - N/A   Scattered Clouds
7:15 AM 39.2 °F - 35.6 °F 87% 29.53 in 6.2 mi SSE 2.3 mph - N/A   Scattered Clouds
7:45 AM 39.2 °F 37.0 °F 33.8 °F 81% 29.53 in 6.2 mi WNW 3.5 mph - N/A   Scattered Clouds
8:15 AM 39.2 °F - 33.8 °F 81% 29.53 in 6.2 mi NNE 2.3 mph - N/A   Scattered Clouds
8:45 AM 39.2 °F - 33.8 °F 81% 29.53 in 6.2 mi NE 2.3 mph - N/A   Scattered Clouds
9:15 AM 41.0 °F 35.8 °F 35.6 °F 81% 29.56 in 6.2 mi North 8.1 mph - N/A   Scattered Clouds
9:45 AM 42.8 °F 38.6 °F 35.6 °F 76% 29.56 in 6.2 mi North 6.9 mph - N/A   Scattered Clouds
10:15 AM 42.8 °F 37.5 °F 37.4 °F 81% 29.56 in 6.2 mi North 9.2 mph - N/A   Scattered Clouds
10:45 AM 44.6 °F 38.8 °F 37.4 °F 76% 29.56 in 6.2 mi North 11.5 mph - N/A   Partly Cloudy
11:15 AM 46.4 °F 41.9 °F 37.4 °F 71% 29.56 in 6.2 mi North 9.2 mph - N/A   Scattered Clouds
11:45 AM 46.4 °F 41.5 °F 35.6 °F 66% 29.56 in 6.2 mi North 10.4 mph - N/A   Scattered Clouds
12:15 PM 44.6 °F 39.7 °F 33.8 °F 66% 29.56 in 6.2 mi North 9.2 mph - N/A   Scattered Clouds
12:45 PM 44.6 °F 39.2 °F 33.8 °F 66% 29.56 in 6.2 mi North 10.4 mph 21.9 mph N/A   Scattered Clouds
1:15 PM 44.6 °F 38.1 °F 33.8 °F 66% 29.56 in 6.2 mi NNW 13.8 mph - N/A   Scattered Clouds
1:45 PM 44.6 °F 38.1 °F 30.2 °F 57% 29.56 in 6.2 mi North 13.8 mph - N/A   Scattered Clouds
2:15 PM 46.4 °F 40.7 °F 30.2 °F 53% 29.56 in 6.2 mi NNW 12.7 mph - N/A   Scattered Clouds
2:45 PM 46.4 °F 40.7 °F 30.2 °F 53% 29.56 in 6.2 mi NNW 12.7 mph 24.2 mph N/A   Scattered Clouds
3:15 PM 41.0 °F 33.9 °F 26.6 °F 57% 29.56 in 6.2 mi NNW 12.7 mph - N/A   Scattered Clouds
3:45 PM 41.0 °F 33.9 °F 26.6 °F 57% 29.56 in 6.2 mi NNW 12.7 mph - N/A   Scattered Clouds
4:15 PM 41.0 °F 33.1 °F 26.6 °F 57% 29.56 in 6.2 mi North 15.0 mph - N/A   Scattered Clouds
4:45 PM 41.0 °F 32.8 °F 24.8 °F 53% 29.56 in 6.2 mi NNW 16.1 mph - N/A   Scattered Clouds
5:15 PM 39.2 °F 30.2 °F 24.8 °F 56% 29.59 in 6.2 mi NNW 17.3 mph - N/A   Scattered Clouds
5:45 PM 39.2 °F 32.0 °F 24.8 °F 56% 29.59 in 6.2 mi NNW 11.5 mph - N/A   Scattered Clouds
6:15 PM 37.4 °F 28.9 °F 24.8 °F 60% 29.62 in 6.2 mi NNW 13.8 mph 26.5 mph N/A   Scattered Clouds
6:45 PM 37.4 °F 29.3 °F 24.8 °F 60% 29.62 in 6.2 mi NNW 12.7 mph - N/A   Partly Cloudy
7:15 PM 37.4 °F 29.3 °F 26.6 °F 65% 29.62 in 6.2 mi NNW 12.7 mph 25.3 mph N/A   Partly Cloudy
7:45 PM 37.4 °F 29.3 °F 26.6 °F 65% 29.62 in 6.2 mi NNW 12.7 mph - N/A   Scattered Clouds
8:15 PM 37.4 °F 28.5 °F 26.6 °F 65% 29.62 in 6.2 mi NNW 15.0 mph - N/A   Scattered Clouds
8:45 PM 35.6 °F 26.6 °F 26.6 °F 70% 29.65 in 6.2 mi North 13.8 mph 25.3 mph N/A   Scattered Clouds
9:15 PM 35.6 °F 27.1 °F 26.6 °F 70% 29.65 in 6.2 mi North 12.7 mph 25.3 mph N/A   Scattered Clouds
9:45 PM 37.4 °F 28.2 °F 28.4 °F 70% 29.65 in 6.2 mi North 16.1 mph 28.8 mph N/A   Scattered Clouds
10:15 PM 37.4 °F 28.9 °F 26.6 °F 65% 29.68 in 6.2 mi North 13.8 mph 27.6 mph N/A   Scattered Clouds
10:45 PM 39.2 °F 31.6 °F 28.4 °F 65% 29.71 in 6.2 mi North 12.7 mph - N/A   Mostly Cloudy
11:15 PM 39.2 °F 30.5 °F 28.4 °F 65% 29.71 in 6.2 mi North 16.1 mph 28.8 mph N/A   Mostly Cloudy
11:45 PM 37.4 °F 27.8 °F 26.6 °F 65% 29.71 in 6.2 mi NNW 17.3 mph 28.8 mph N/A   Mostly Cloudy